Starlink 11374

operational
NORAD ID: 61581 Int'l Des: 2024-187 Owner: SPXS Country: US Constellation: starlink
LEOCIRCULAR

Starlink 11374について

説明を読み込み中...

リアルタイム位置

3D地球を読み込み中...

次回通過

高度履歴

Altitude vs Time

uPlot chart will show altitude changes over time

軌道要素

1 61581U 24187H 25259.79771832 -.00004620 00000-0 -33317-4 0 9995
2 61581 53.1573 73.8432 0001062 98.9584 261.1554 15.69693879 53483
Epoch: Sep 16, 2025 • Age: 33 hours

現在のステータス

高度 363.1 km
速度 7.70 km/s
衛星直下点 41.63°N, 151.94°E
打ち上げ日 Oct 18, 2024
運用期間 0.9 years
タイプ internet

技術仕様

分類 Payload
質量 960.00 kg
乾燥質量 910.00 kg
総質量 960.00 kg
長さ 0.30 m
直径 4.10 m
スパン 29.00 m
形状 Box + pan
製造者 SPXS
バスタイプ Starlink V2MD
フェーズステータス In Orbit
所有者/国 SPXS/US

大規模コンステレーション

Loading constellations...